Dewpoint
74 73 73 73 69 65 64 62 38 35 40 34 30 32 35 39 39 39 39 41 42 46 48 50 50 51 49 50 53 54 56 54 55 46 55 64 69 67 71 70 69 72 71 71 74 75 75 75 75 75 75 75 74 75 76 76 76 76 76 76 76 77 77 77 77 76 76 76 76 76 76 76 76 76 76 76 76 76 76 76 75 75 75 75 75 75 75 76 76 76 76 76 75 75 75 75 75
69 72 70 67 65 65 56 50 40 36 34 28 29 33 33 32 34 37 40 43 45 46 47 47 47 48 49 50 51 55 55 59 60 62 64 67 67 67 70 71 69 69 70 71 74 74 75 75 75 75 75 75 74 75 76 76 76 76 77 76 76 76 77 77 77 76 76 76 76 76 76 76 76 76 76 76 75 75 76 76 75 75 75 75 75 75 76 76 76 76 75 75 75 74 75 75 75
67 67 65 66 65 63 55 56 41 36 34 30 31 32 34 35 39 42 43 45 46 48 49 49 49 50 51 52 50 54 56 60 62 64 65 66 66 68 69 71 71 70 69 71 73 73 75 76 75 75 75 75 75 76 76 77 76 76 76 76 76 76 76 76 76 76 76 76 75 76 76 76 76 76 75 75 75 75 75 75 75 75 75 75 75 75 75 75 75 75 76 76 76 75 75 74 74
68 68 64 64 61 59 57 34 37 31 32 33 33 33 33 36 41 42 44 46 48 47 47 48 46 48 50 51 53 55 57 58 62 64 64 65 67 68 69 71 71 70 70 71 73 74 75 75 74 74 75 75 75 77 77 77 76 77 76 76 76 76 76 76 76 76 76 75 75 75 75 75 76 76 76 76 75 75 75 75 75 75 75 75 75 75 75 75 75 75 76 76 76 76 75 74 75
67 68 65 62 63 57 39 37 32 31 32 34 35 39 40 39 42 44 45 45 43 42 46 50 51 54 51 51 54 54 55 59 60 63 65 67 68 68 69 69 69 70 71 73 72 72 76 75 74 74 74 75 75 76 76 76 76 76 76 76 76 76 76 76 76 75 75 75 75 75 75 75 75 76 75 76 76 75 75 76 75 75 76 75 75 74 75 75 75 75 75 75 76 76 75 75 74
68 65 63 62 58 50 41 34 34 34 35 36 36 39 42 45 44 43 43 42 44 42 42 43 47 51 53 54 52 53 57 57 62 64 65 66 67 67 68 69 67 68 71 72 72 75 73 77 76 75 75 76 76 76 76 76 76 76 76 75 76 76 76 76 76 75 75 75 75 75 75 75 75 75 75 76 76 75 76 76 76 75 75 75 75 75 75 75 74 75 75 75 75 75 75 74 74
60 60 60 60 55 53 36 33 32 33 34 36 36 39 42 42 42 43 42 42 42 39 39 41 47 50 51 56 56 57 58 60 61 63 66 66 67 68 67 67 68 69 71 72 72 73 75 76 76 76 76 76 76 76 76 76 77 76 76 76 76 76 76 76 75 75 75 75 75 75 75 75 75 75 75 75 75 75 75 75 75 75 75 75 74 75 74 74 75 74 74 74 74 74 74 75 74
62 60 52 50 38 36 34 32 32 33 33 36 39 41 43 42 41 39 40 39 40 41 43 43 45 45 47 52 54 57 60 61 62 65 66 66 68 68 68 68 67 67 70 73 74 74 78 76 76 77 77 77 77 76 76 76 76 76 76 76 76 76 75 75 75 75 75 75 75 75 75 75 75 75 75 75 75 74 74 74 74 74 74 74 74 74 74 74 74 74 73 73 73 74 74 74 75
57 59 44 41 34 31 32 32 32 35 36 38 40 46 53 43 43 39 37 38 41 43 42 42 46 47 49 51 54 58 60 62 64 66 66 66 67 68 67 67 67 67 69 70 72 73 75 76 76 76 76 76 77 76 76 76 76 76 76 76 75 75 75 75 75 75 75 75 75 75 75 75 75 75 75 75 74 74 74 75 75 74 74 74 74 74 74 74 74 73 73 73 73 73 73 73 74
55 53 48 35 33 34 33 33 33 34 36 39 39 40 42 39 37 39 40 42 43 42 45 47 48 48 49 51 54 57 60 63 63 64 65 65 66 67 66 66 67 67 68 69 72 73 74 78 76 77 76 76 76 76 76 76 76 76 75 75 75 75 75 75 75 75 75 75 75 75 75 75 75 75 75 75 75 75 75 75 75 75 75 74 75 75 75 74 74 74 75 75 75 74 72 72 72
56 43 37 34 32 32 34 32 34 35 36 39 39 39 38 39 39 39 42 42 42 45 45 45 44 48 52 54 55 59 60 62 62 62 63 64 66 65 65 67 66 67 67 68 71 73 74 76 77 77 76 76 76 76 76 76 76 76 75 75 75 75 75 75 76 75 75 75 75 75 75 75 75 75 75 75 75 75 75 75 75 75 75 75 75 75 74 74 74 75 75 75 75 75 75 75 75
54 32 33 34 32 34 34 36 35 36 38 40 39 40 40 39 39 41 42 40 42 43 44 46 50 54 53 53 55 57 58 62 62 63 64 64 64 64 65 65 66 66 68 69 70 73 74 76 77 77 76 76 76 76 76 76 76 76 76 76 76 76 75 75 75 75 75 75 75 75 75 75 76 75 75 76 75 75 75 75 75 75 75 75 75 74 74 74 75 75 74 74 75 75 75 74 74
47 31 27 30 30 34 33 34 35 38 38 40 39 41 42 41 41 41 40 41 42 44 47 48 49 50 52 54 56 56 58 60 62 64 64 65 65 65 65 65 65 67 68 70 70 73 73 74 74 76 76 76 76 76 76 76 76 76 76 76 75 75 75 75 75 75 75 75 75 75 75 75 76 76 76 76 75 75 75 75 75 75 74 74 74 74 74 74 75 75 74 74 74 74 74 75 74
40 31 28 29 30 31 31 33 36 35 36 39 43 44 42 41 43 46 47 45 43 43 44 47 50 54 54 55 56 56 58 59 61 63 64 65 65 64 65 65 66 67 69 71 72 72 73 73 72 74 77 76 76 76 76 76 76 76 76 75 76 75 75 75 75 75 76 75 76 76 76 76 76 76 75 75 75 75 75 74 74 74 74 74 74 74 73 75 74 75 74 74 73 74 74 74 74
42 33 26 32 27 29 31 30 30 33 37 40 43 44 42 44 46 48 46 44 43 45 50 51 49 49 49 54 54 56 57 59 61 63 64 65 65 65 66 67 67 68 68 69 71 72 73 72 72 74 75 75 76 75 76 76 76 76 76 76 75 76 75 75 75 75 76 76 76 76 76 76 76 75 75 75 75 75 75 75 74 74 74 74 75 75 74 75 74 74 74 74 74 74 74 74 74
39 37 27 30 23 21 25 28 31 33 36 41 42 44 45 46 45 44 46 47 47 50 51 48 53 50 51 51 55 56 59 60 61 63 65 66 67 67 67 68 69 69 70 70 71 73 73 73 73 73 76 76 75 74 74 76 76 76 76 76 76 75 75 75 75 75 75 75 75 75 75 76 75 75 75 75 75 74 75 74 73 73 74 75 75 75 75 75 75 75 75 75 74 74 74 75 74
34 35 24 22 22 20 23 26 29 33 37 40 42 43 44 45 47 47 49 50 50 53 53 49 49 51 51 54 56 58 59 62 63 63 65 68 67 65 67 68 69 69 70 70 72 73 73 74 74 75 76 76 76 75 75 76 77 77 77 76 76 76 76 76 75 75 75 75 75 75 75 75 75 73 74 74 73 74 74 75 74 74 74 75 75 75 74 75 75 75 75 74 74 74 74 75 75
36 31 22 22 19 19 24 26 29 35 37 40 42 42 44 45 47 48 50 53 53 52 52 53 51 52 54 57 58 58 60 61 61 62 63 65 66 64 64 66 67 68 69 70 72 73 73 75 75 75 76 76 76 77 77 76 77 76 76 77 77 76 76 76 76 76 75 76 75 75 75 74 74 76 75 75 74 74 73 75 74 74 74 75 75 75 75 75 75 75 75 75 75 75 75 74 75
31 21 24 22 21 21 26 28 30 35 35 38 40 43 44 45 47 47 48 52 53 52 53 56 55 56 57 58 58 59 59 60 61 61 62 63 64 65 64 66 67 67 68 70 72 72 74 74 74 75 75 76 76 76 76 76 76 76 77 76 76 76 75 76 75 75 76 76 76 74 76 75 73 76 75 75 73 73 73 74 75 75 74 75 76 75 75 75 75 75 75 75 75 75 75 74 73
25 22 21 23 24 26 30 32 33 34 36 37 39 41 42 43 42 47 46 48 48 53 54 54 55 56 57 57 58 58 59 60 62 61 60 62 63 63 64 64 65 68 68 67 70 72 72 71 73 73 74 75 74 73 75 75 75 75 75 77 76 75 76 75 76 75 76 76 75 75 77 75 75 76 76 76 75 74 73 75 76 75 75 75 75 76 76 76 76 76 76 76 75 74 73 71 70
16 20 20 23 26 27 30 32 35 35 36 36 37 39 39 42 41 44 44 47 48 50 53 54 54 56 56 56 57 58 59 59 60 60 61 63 62 60 62 65 65 67 67 68 69 71 71 72 72 73 75 75 75 72 74 73 76 74 74 74 75 74 75 74 74 76 75 75 76 76 75 75 75 75 76 76 75 74 72 74 76 75 74 74 75 75 74 74 76 74 74 75 74 74 73 73 71
20 22 24 25 29 28 33 34 36 35 36 37 39 41 39 42 46 44 45 44 48 51 53 54 56 56 55 57 57 59 58 60 59 60 60 61 61 62 60 62 64 65 66 66 66 70 70 71 72 76 74 75 74 73 74 72 74 73 74 74 74 75 75 74 73 74 74 77 76 74 73 74 74 72 73 74 73 73 73 72 75 76 75 74 75 75 73 72 73 73 71 71 71 73 72 71 70
20 25 26 29 31 32 34 34 34 35 36 37 36 39 43 45 46 50 50 50 53 55 54 54 55 55 56 57 57 58 58 59 58 59 60 61 62 61 59 61 62 64 65 66 65 68 70 71 71 72 73 75 75 75 74 73 72 74 74 74 74 73 73 73 73 72 73 75 75 74 72 70 71 70 71 73 74 73 71 72 70 74 74 73 74 74 73 73 71 71 70 71 70 69 70 70 71
23 26 28 28 31 33 34 34 35 34 35 35 37 40 42 46 48 51 52 53 55 55 55 54 54 55 56 56 57 57 58 58 58 59 59 60 60 60 61 60 62 64 65 66 66 67 69 69 71 72 72 73 75 75 75 74 74 73 73 74 73 73 73 72 70 71 73 73 76 75 74 73 69 69 71 71 75 72 72 73 72 72 72 69 70 71 69 69 69 69 72 72 71 71 69 71 69
25 27 30 31 32 34 35 35 34 35 37 38 40 40 43 44 48 49 52 54 55 55 55 55 55 56 56 57 57 58 60 58 57 59 59 61 59 60 59 61 62 64 64 65 66 67 67 68 71 71 72 75 74 73 73 73 72 74 73 72 73 73 73 72 71 73 73 72 73 77 76 74 71 70 70 73 75 72 72 73 71 73 72 70 70 68 70 70 73 69 70 71 72 72 71 70 70
26 29 30 31 31 34 34 34 36 36 37 36 39 43 46 46 45 47 54 55 55 56 55 55 56 56 57 57 59 62 62 61 59 59 59 60 58 60 59 61 61 63 63 65 65 67 68 67 68 69 71 74 74 71 73 71 72 73 73 74 74 74 73 74 73 72 73 72 71 74 75 77 72 70 70 77 74 73 76 73 72 73 73 72 71 70 72 72 69 69 70 69 71 71 71 70 69
28 29 31 30 33 34 34 35 36 37 37 38 40 42 42 44 45 48 54 55 56 55 56 56 55 55 56 57 59 62 62 60 60 60 60 60 60 62 60 61 61 63 64 65 65 67 69 68 67 70 71 74 74 73 73 73 73 72 73 73 73 74 74 75 74 73 72 72 72 74 76 77 74 72 72 75 73 75 75 74 72 73 73 75 75 73 73 70 70 69 70 70 70 70 71 72 71
27 31 31 32 33 34 35 37 37 37 36 36 37 38 41 41 45 48 53 54 55 54 54 55 56 57 57 58 60 63 63 63 63 61 60 61 60 61 61 62 62 63 64 65 66 68 67 67 68 69 71 74 74 73 74 74 73 72 72 72 72 74 75 74 73 72 72 72 72 73 77 77 76 74 74 75 74 75 74 75 75 74 74 74 75 74 74 73 73 74 71 72 72 71 70 70 71
29 32 30 31 35 34 36 36 37 37 36 37 39 38 37 41 45 49 51 55 55 55 55 55 56 57 58 59 59 62 61 62 62 62 60 61 61 61 61 61 61 63 63 64 67 66 65 67 67 70 71 74 74 73 73 72 72 72 72 71 71 69 73 73 73 72 73 73 74 75 75 75 76 74 74 75 74 73 76 71 73 74 74 74 75 74 73 74 73 71 70 71 72 70 68 70 70
30 32 33 35 35 34 36 38 37 37 37 38 38 38 36 38 46 49 50 49 54 56 56 56 57 57 58 59 59 62 62 64 63 64 63 63 62 62 61 61 63 63 64 65 67 67 66 65 65 66 69 70 73 72 72 71 72 72 72 70 71 70 66 66 69 71 71 72 73 74 75 76 75 75 75 75 74 73 74 75 74 74 74 74 75 75 74 74 73 72 70 72 69 71 70 69 68
26 31 32 34 33 32 36 38 39 38 40 41 37 33 37 40 46 49 50 48 49 55 56 56 56 57 59 60 62 64 64 67 65 65 64 63 64 64 65 66 67 67 67 67 67 69 68 69 68 68 69 71 72 72 72 72 72 71 72 71 71 72 70 68 66 68 69 70 72 71 74 76 76 76 77 77 75 74 73 73 73 74 74 75 75 75 75 73 73 73 73 72 71 69 69 70 70
28 29 25 32 30 31 35 38 38 39 38 42 38 36 35 41 44 48 48 49 50 52 51 57 58 58 59 61 63 63 65 65 65 64 64 65 66 67 69 69 69 71 71 71 69 70 68 70 71 70 70 70 72 72 73 73 73 73 73 72 73 73 70 70 68 70 70 70 70 72 73 77 77 78 77 77 76 75 73 74 73 75 76 76 75 76 75 74 73 72 72 72 70 69 69 69 68
27 25 25 30 29 32 32 38 36 38 35 39 44 34 38 40 43 46 48 48 47 50 50 53 53 59 59 60 61 63 64 64 66 65 66 67 69 69 70 72 71 72 73 73 73 72 73 71 73 70 71 71 72 73 74 74 74 74 75 74 73 74 72 71 70 71 71 71 71 70 72 76 77 78 78 78 77 76 75 75 74 75 75 75 75 76 74 73 73 71 72 72 71 70 70 67 67
26 24 26 28 27 33 32 37 36 37 35 37 32 36 39 40 42 43 47 47 45 45 48 50 50 53 56 59 59 61 63 60 66 67 66 68 69 71 70 72 73 73 73 73 74 73 73 74 72 72 72 72 73 73 74 74 74 75 75 74 74 74 74 73 72 72 72 70 71 71 73 76 77 78 79 78 78 76 75 74 74 75 74 74 75 75 74 74 74 73 73 73 73 72 70 69 69
22 22 26 25 25 33 32 33 34 37 35 37 34 38 37 40 42 40 44 47 45 45 46 47 50 51 53 54 58 60 62 58 64 66 65 69 68 69 70 71 73 74 72 72 75 74 75 74 73 74 73 72 71 73 74 74 74 75 74 74 74 75 75 75 74 73 72 72 70 71 74 74 75 74 75 75 75 74 74 74 74 74 75 75 73 72 73 74 74 74 73 72 73 73 73 73 72
19 19 21 25 23 29 31 33 35 37 33 35 35 37 38 41 41 39 42 45 46 44 45 48 48 51 53 56 56 58 60 58 62 63 63 65 69 68 69 67 71 71 72 73 74 74 75 76 75 75 75 73 73 74 74 73 73 73 72 73 74 74 75 74 75 74 74 74 73 73 75 74 73 74 76 76 76 75 74 73 74 74 74 74 74 73 72 73 74 74 74 72 71 71 72 72 71
16 17 20 24 23 26 27 29 34 34 35 33 35 38 38 41 42 41 39 43 48 45 44 45 48 50 51 53 55 56 58 58 58 62 64 65 67 68 69 69 71 72 72 73 74 74 75 75 75 75 75 76 75 74 74 73 72 72 72 73 73 73 74 74 74 74 73 72 73 74 75 75 76 74 74 75 75 75 74 74 74 74 74 73 74 73 72 72 74 74 72 71 69 69 70 72 72
9 14 15 18 19 21 25 29 32 33 33 35 38 38 41 42 42 41 39 38 43 46 47 46 46 49 50 53 55 56 57 58 60 62 62 64 64 66 68 69 71 71 73 74 74 75 76 77 76 76 76 76 75 75 75 75 75 74 73 72 72 71 71 71 72 72 70 68 71 74 74 74 73 75 75 75 75 74 74 73 72 72 71 75 75 74 74 73 74 73 72 71 70 68 68 69 70
11 11 15 16 18 19 25 28 31 32 31 34 34 37 40 42 41 42 41 39 41 43 47 48 49 49 51 51 54 55 56 59 60 62 62 63 63 64 67 68 69 70 73 73 75 76 77 76 74 74 75 75 75 76 76 76 76 76 74 73 71 68 70 69 67 68 68 66 67 67 68 69 71 72 72 73 74 74 74 73 71 72 73 72 74 74 74 73 74 73 72 70 70 71 69 70 70
11 12 13 12 14 21 24 28 28 30 31 31 38 34 40 43 45 44 44 39 41 41 42 46 49 50 51 49 53 55 55 59 60 61 59 60 60 64 66 68 69 69 72 74 76 77 76 74 74 74 73 73 73 75 74 73 73 73 73 73 70 68 67 65 66 66 66 65 64 63 65 68 69 69 67 67 67 68 69 69 69 70 71 72 71 73 73 72 73 73 71 71 70 69 68 69 71
10 11 10 10 13 12 18 24 27 29 30 28 38 38 40 45 44 43 45 43 40 38 41 45 49 50 50 49 51 54 55 59 59 58 59 59 62 63 66 67 67 68 70 72 72 73 72 72 73 73 72 72 72 73 73 72 72 70 70 69 69 68 68 67 65 63 63 61 58 60 60 65 67 68 67 67 67 68 69 69 70 71 71 71 73 74 72 72 72 72 71 70 70 69 68 68 72
9 10 9 11 12 12 15 25 25 26 29 28 30 36 38 47 48 47 46 43 44 42 43 45 49 51 52 49 51 53 54 57 59 58 56 57 61 64 66 68 68 68 69 70 71 71 72 73 74 73 71 71 71 70 69 66 66 66 66 65 65 63 62 62 62 62 59 60 56 60 63 66 67 68 67 67 67 67 69 70 70 70 70 71 72 73 72 72 71 70 70 70 70 72 70 71 71
11 12 12 5 5 4 14 19 25 26 25 28 28 31 36 44 47 46 45 44 45 48 49 47 51 54 53 52 52 53 52 55 57 56 58 58 62 64 66 68 67 66 68 69 69 71 72 73 72 69 67 68 66 66 65 66 65 66 65 63 62 61 61 63 65 64 64 64 64 65 65 66 68 66 67 67 67 67 69 69 70 70 69 70 71 71 71 71 71 70 71 72 70 71 72 70 69
11 12 10 9 10 7 10 16 24 23 23 22 28 29 30 31 46 45 43 44 46 49 49 48 49 54 51 55 54 56 53 55 56 58 59 60 63 64 67 68 67 65 68 69 70 72 72 70 67 67 66 65 66 67 67 68 66 65 64 64 64 63 62 63 64 66 66 67 66 64 65 65 67 66 66 67 67 67 68 69 70 70 71 72 71 71 71 72 70 70 70 71 71 71 71 70 68
18 21 9 11 9 10 10 12 19 21 21 24 27 30 31 30 35 42 42 40 45 47 47 48 48 52 52 54 51 54 54 56 57 57 59 60 63 64 67 69 67 66 69 70 71 72 69 66 66 67 66 68 68 69 69 67 66 65 65 64 64 64 65 64 63 63 64 65 65 64 66 65 65 66 65 65 66 67 68 69 71 72 71 71 71 71 71 71 70 70 70 71 71 71 71 71 70
15 24 18 12 13 13 12 17 19 23 25 24 30 30 32 31 31 29 37 39 43 45 47 46 47 49 51 50 51 53 54 57 58 58 60 61 63 64 66 68 67 66 70 72 71 68 65 66 67 68 68 68 69 69 68 67 66 66 66 67 66 65 65 66 66 66 66 66 65 65 66 66 65 66 66 66 67 67 67 68 69 69 69 70 69 69 69 70 71 70 71 70 69 69 70 71 69
21 19 16 17 16 18 23 25 28 28 26 29 26 25 28 28 31 28 34 38 41 44 47 47 47 48 50 51 49 51 54 57 58 58 60 62 63 63 66 67 68 69 71 71 67 66 65 66 68 68 69 67 69 68 68 67 68 68 67 65 65 66 66 65 65 66 65 66 66 66 65 65 65 64 64 65 66 66 67 67 66 67 68 69 70 70 70 69 67 68 69 70 69 69 69 69 69
20 16 17 19 26 27 30 28 30 27 25 30 24 21 23 26 27 27 34 37 38 37 37 44 47 49 51 53 50 50 55 58 58 59 60 62 64 63 66 67 70 71 70 69 64 65 65 67 68 68 68 68 68 69 69 69 68 68 66 66 65 65 65 64 64 64 65 65 65 65 65 65 65 65 66 65 65 62 65 66 67 68 68 70 69 70 69 70 68 68 68 70 70 70 71 69 69
15 17 21 22 24 30 23 25 24 23 21 23 20 19 22 26 31 28 27 35 37 35 32 35 43 50 52 53 53 52 54 58 58 60 61 62 63 63 66 70 71 70 69 67 65 64 66 68 69 68 68 68 68 69 69 69 68 68 67 65 64 65 64 65 65 65 64 65 65 65 64 63 64 64 64 64 63 64 66 66 67 68 68 69 69 69 68 69 70 69 69 69 70 70 69 69 67
15 18 22 24 22 23 22 22 24 23 23 18 22 23 21 26 26 31 27 26 25 32 36 35 40 50 53 54 55 51 54 59 59 58 60 63 64 64 67 71 70 69 68 65 65 65 67 68 69 68 68 68 69 69 69 68 67 66 67 66 65 64 65 64 64 64 64 65 65 65 64 63 63 63 63 64 64 65 65 65 66 66 68 70 71 71 70 70 70 70 69 69 69 69 69 69 69
15 14 15 23 25 20 23 20 19 19 19 19 19 22 28 21 21 25 26 32 33 32 33 39 39 41 53 53 55 54 55 57 54 55 55 59 64 67 69 70 69 68 67 64 65 66 68 68 69 68 68 68 69 69 68 66 66 67 67 66 64 65 64 64 64 64 65 65 65 64 65 64 64 65 64 65 66 66 65 65 65 65 66 68 70 70 68 67 68 68 68 69 68 68 68 68 68
13 13 13 16 21 23 16 20 20 20 18 22 26 26 27 24 40 34 36 30 32 30 35 39 40 38 45 54 56 54 53 56 58 54 57 62 66 69 68 68 69 67 66 64 66 67 68 68 68 68 68 69 69 68 67 66 66 67 66 65 64 64 64 64 64 65 64 64 64 64 65 66 66 65 66 66 65 65 65 65 65 65 65 66 67 68 69 66 66 65 66 67 67 66 66 66 66
13 11 13 15 15 15 22 25 18 20 21 23 29 29 27 24 26 31 34 33 36 36 34 35 44 45 47 51 55 56 54 57 59 55 52 62 66 68 67 68 67 65 64 64 67 68 69 68 67 67 69 70 69 68 67 66 66 66 66 65 64 63 63 64 62 63 62 63 63 63 63 64 65 65 65 65 65 66 66 65 65 64 65 66 66 66 66 66 67 67 65 67 67 66 66 65 66
13 12 11 13 10 15 26 18 26 19 16 19 17 19 24 24 24 32 32 33 32 36 37 32 43 51 49 48 54 56 54 57 61 63 61 62 64 66 65 65 65 65 64 66 68 68 69 67 67 66 68 69 68 67 66 67 67 66 66 65 65 65 64 63 63 63 64 63 63 64 64 64 64 64 64 65 65 65 65 65 65 65 66 66 66 66 67 67 67 67 66 66 66 66 67 66 66
9 11 15 14 19 20 24 25 21 22 23 22 21 20 22 23 33 31 34 31 32 36 38 37 36 45 51 50 52 58 58 57 59 62 63 60 65 66 64 63 63 64 66 67 69 68 67 66 66 66 67 68 67 66 66 67 67 66 66 65 65 65 65 65 64 64 64 63 62 62 63 63 63 64 64 65 65 64 64 64 65 64 64 62 63 64 65 65 66 66 66 64 64 65 65 65 66
15 16 16 11 18 25 23 24 25 26 21 23 21 21 20 30 24 32 34 34 34 32 35 35 35 38 48 53 52 56 59 58 59 61 60 58 63 63 60 60 59 62 65 66 66 64 61 63 66 66 66 67 67 66 67 67 68 67 65 66 65 65 65 65 65 64 63 62 62 62 63 62 63 62 62 63 63 63 64 64 62 62 62 61 62 63 62 64 65 66 66 65 64 65 66 66 65
13 15 15 16 16 16 19 20 22 23 25 21 22 18 27 32 25 27 32 32 34 33 36 39 38 38 41 52 54 57 60 60 60 63 62 64 64 61 59 58 57 61 63 64 63 60 58 59 63 63 65 65 65 66 66 67 67 67 67 66 65 65 65 65 64 64 64 63 63 63 63 63 64 63 63 62 62 63 64 64 63 65 64 64 65 65 65 66 66 66 66 66 65 65 65 65 65
12 11 14 13 16 18 18 24 22 22 19 20 18 19 28 30 31 35 31 33 31 35 35 38 40 39 44 51 55 57 60 61 62 62 61 61 62 61 58 57 58 60 61 61 59 56 54 57 59 59 58 59 59 65 66 67 67 66 66 66 66 65 64 64 64 64 63 63 62 62 63 64 62 63 62 61 62 62 63 63 64 65 65 65 66 66 64 64 64 65 65 64 63 64 65 64 64